Location: T�bingen+AIT
(48.5342°N, 9.0700°E)
Time: 22:36:45
(UTC+01:00)

BREEZE-M DEB (TANK) - Pass Details

Date: 14 September 2017
Orbit: 355 x 16285 km, 49.5° (Epoch: 18 November)

Event Time Altitude Azimuth Distance (km) Brightness Sun altitude
Rises 22:08:59 0° 267° (W) 11,548 9.8 -24.0°
Reaches altitude 10° 22:20:57 10° 270° (W) 7,759 8.7 -25.5°
Maximum altitude 22:38:23 84° 0° (N) 1,222 3.9 -27.7°
Enters shadow 22:39:35 60° 79° (E) 1,183 3.7 -27.8°
